EW5542 Weather Reports


time (UTC)temp
C
wind
direction
speed
KPH
gust
KPH
rain 1hr
cm
rain 24hr
cm
rain mn
cm
humidity
%
barometer
mb
20260906123050 21 27 0.0 11.3 0.00 0.00 0.00 88 1014.9
20260906121550 21 23 0.0 8.0 0.00 0.00 0.00 88 1014.7
20260906120045 21 5 0.0 6.4 0.00 0.00 0.00 88 1014.3
20260906114542 21 12 0.0 0.0 0.00 0.00 0.00 88 1014.0
20260906113041 21 30 0.0 3.2 0.00 0.00 0.00 87 1013.8
20260906111537 21 9 0.0 0.0 0.00 0.00 0.00 87 1013.5
20260906110035 22 35 0.0 8.0 0.00 0.00 0.00 87 1013.4
20260906104536 22 355 0.0 6.4 0.00 0.00 0.00 86 1013.3
20260906103032 22 26 0.0 4.8 0.00 0.00 0.00 86 1013.3
20260906101529 22 26 0.0 0.0 0.00 0.00 0.00 86 1013.1
20260906100031 22 14 0.0 0.0 0.00 0.00 0.00 86 1012.9
20260906094525 23 344 0.0 6.4 0.00 0.00 0.00 85 1012.8
20260906093040 23 334 0.0 3.2 0.00 0.00 0.00 85 1012.8
20260906091524 23 5 0.0 1.6 0.00 0.00 0.00 84 1012.7
20260906090020 23 334 0.0 4.8 0.00 0.00 0.00 84 1012.5
20260906084515 24 9 0.0 0.0 0.00 0.00 0.00 84 1012.4
20260906083018 24 24 0.0 3.2 0.00 0.00 0.00 83 1012.3
20260906081521 25 36 0.0 0.0 0.00 0.00 0.00 82 1012.5
20260906080009 25 360 0.0 0.0 0.00 0.00 0.00 81 1012.4
20260906074506 26 355 0.0 0.0 0.00 0.00 0.00 80 1012.4
20260906073008 26 26 0.0 0.0 0.00 0.00 0.00 80 1012.4
20260906071502 26 26 0.0 0.0 0.00 0.00 0.00 80 1012.3
20260906070132 26 64 0.0 1.6 0.00 0.00 0.00 79 1012.2
20260906070001 26 68 0.0 1.6 0.00 0.00 0.00 80 1012.3
20260906064559 26 72 0.0 1.6 0.00 0.00 0.00 80 1012.5
20260906063056 27 51 0.0 1.6 0.00 0.00 0.00 79 1012.5
20260906061616 27 29 0.0 0.0 0.00 0.00 0.00 79 1012.6
20260906060052 27 63 0.0 14.5 0.00 0.00 0.00 78 1012.7
20260906054552 27 46 1.6 14.5 0.00 0.00 0.00 78 1012.5
20260906053052 27 30 0.0 9.7 0.00 0.00 0.00 79 1012.7
20260906051547 28 19 0.0 4.8 0.00 0.00 0.00 78 1012.6
20260906050105 28 54 0.0 8.0 0.00 0.00 0.00 77 1012.6
20260906044544 28 44 0.0 1.6 0.00 0.00 0.00 75 1012.3
20260906043052 29 25 0.0 4.8 0.00 0.00 0.00 74 1011.9
20260906041542 29 59 0.0 0.0 0.00 0.00 0.00 73 1011.9
20260906040057 30 17 0.0 4.8 0.00 0.00 0.00 71 1011.8
20260906034540 30 54 0.0 0.0 0.00 0.00 0.00 70 1011.6
20260906033040 30 34 0.0 3.2 0.00 0.00 0.00 69 1011.4
20260906031540 30 44 0.0 1.6 0.00 0.00 0.00 69 1011.4
20260906030039 30 49 0.0 4.8 0.00 0.00 0.00 68 1011.3
20260906024537 30 46 0.0 4.8 0.00 0.00 0.00 66 1011.2
20260906023054 30 42 0.0 0.0 0.00 0.00 0.00 66 1011.2
20260906021538 30 43 0.0 3.2 0.00 0.00 0.00 64 1010.8
20260906020037 31 20 0.0 0.0 0.00 0.00 0.00 63 1010.7
20260906014549 31 5 0.0 0.0 0.00 0.00 0.00 61 1010.4
20260906013036 31 5 0.0 0.0 0.00 0.00 0.00 61 1010.4
20260906011549 31 5 0.0 0.0 0.00 0.00 0.00 61 1010.3
20260906010036 31 360 0.0 0.0 0.00 0.00 0.00 62 1010.1
20260906004535 31 329 0.0 0.0 0.00 0.00 0.00 62 1010.0
20260906003034 32 342 0.0 0.0 0.00 0.00 0.00 60 1009.9
20260906001534 33 355 0.0 0.0 0.00 0.00 0.00 57 1009.9
20260906000033 33 315 0.0 0.0 0.00 0.00 0.00 55 1010.0
20260905234539 33 333 0.0 4.8 0.00 0.00 0.00 54 1010.0
20260905233032 35 313 0.0 4.8 0.00 0.00 0.00 52 1010.1
20260905231531 35 9 0.0 0.0 0.00 0.00 0.00 48 1009.9
20260905230030 36 328 0.0 9.7 0.00 0.00 0.00 47 1009.7
20260905224535 36 344 0.0 3.2 0.00 0.00 0.00 47 1009.7
20260905223034 35 321 0.0 9.7 0.00 0.00 0.00 49 1009.9
20260905221529 35 312 0.0 12.9 0.00 0.00 0.00 51 1009.9
20260905220029 35 306 3.2 14.5 0.00 0.00 0.00 51 1009.8
20260905214528 35 360 4.8 12.9 0.00 0.00 0.00 49 1009.6
20260905213029 35 339 0.0 8.0 0.00 0.00 0.00 50 1009.8
20260905211527 35 323 0.0 11.3 0.00 0.00 0.00 48 1009.8
20260905210024 36 15 3.2 20.9 0.00 0.00 0.00 44 1009.9
20260905204523 37 336 0.0 16.1 0.00 0.00 0.00 42 1010.0
20260905203022 37 313 12.9 20.9 0.00 0.00 0.00 39 1010.1
20260905201522 37 312 3.2 16.1 0.00 0.00 0.00 45 1010.2
20260905200019 37 265 1.6 14.5 0.00 0.00 0.00 41 1010.3
20260905194514 37 292 1.6 16.1 0.00 0.00 0.00 42 1010.5
20260905193012 37 329 0.0 11.3 0.00 0.00 0.00 42 1010.6
20260905191512 37 5 0.0 12.9 0.00 0.00 0.00 45 1010.9
20260905190021 36 190 0.0 16.1 0.00 0.00 0.00 45 1011.0
20260905184503 36 5 0.0 12.9 0.00 0.00 0.00 46 1011.2
20260905181559 36 217 0.0 8.0 0.00 0.00 0.00 48 1011.5
20260905180051 36 280 0.0 6.4 0.00 0.00 0.00 49 1011.7
20260905174547 35 149 0.0 6.4 0.00 0.00 0.00 52 1011.8
20260905173043 35 268 0.0 8.0 0.00 0.00 0.00 52 1012.0
20260905171541 35 225 0.0 8.0 0.00 0.00 0.00 54 1012.0
20260905170041 34 231 0.0 8.0 0.00 0.00 0.00 56 1012.2
20260905164538 33 182 0.0 9.7 0.00 0.00 0.00 57 1012.6
20260905163033 33 221 0.0 8.0 0.00 0.00 0.00 58 1012.6
20260905160028 32 193 0.0 6.4 0.00 0.00 0.00 60 1012.8
20260905154525 32 173 0.0 6.4 0.00 0.00 0.00 61 1012.9
20260905153029 31 237 0.0 9.7 0.00 0.00 0.00 64 1013.0
20260905151518 30 195 0.0 8.0 0.00 0.00 0.00 66 1012.9
20260905150019 30 234 0.0 6.4 0.00 0.00 0.00 67 1012.9
20260905144513 30 229 4.8 9.7 0.00 0.00 0.00 67 1012.8
20260905143020 30 228 0.0 9.7 0.00 0.00 0.00 69 1012.7
20260905141509 29 200 0.0 4.8 0.00 0.00 0.00 74 1012.9
20260905140003 28 196 0.0 6.4 0.00 0.00 0.00 76 1012.9
20260905134559 27 191 0.0 0.0 0.00 0.00 0.00 78 1013.0
20260905133106 27 188 0.0 8.0 0.00 0.00 0.00 79 1013.0
20260905131608 26 117 0.0 4.8 0.00 0.00 0.00 81 1012.8
20260905130055 26 118 0.0 6.4 0.00 0.00 0.00 83 1012.9
20260905124554 25 137 0.0 0.0 0.00 0.00 0.00 84 1012.7